Clermont County, Batavia, OH

4:36 PM EST on December 09, 2019 (GMT -0500)
Clermont County, Batavia

Weather History for KI69 - September, 2019

Change the Weather History Date:

Sunday, September 29, 2019

  Actual Average (KLUK) Record (KLUK)
Temperature  
Mean Temperature 77 °F -  
Max Temperature 90 °F 73 °F 90 °F (1971)
Min Temperature 64 °F 49 °F 34 °F (1951)
Cooling Degree Days 12    
Growing Degree Days 27 (Base 50)    
Moisture  
Dew Point 66 °F    
Average Humidity 74    
Maximum Humidity 98    
Minimum Humidity 42    
Precipitation  
Precipitation 0.00 in - - ()
Sea Level Pressure  
Sea Level Pressure 30.19 in    
Wind  
Wind Speed 2 mph (SE)    
Max Wind Speed 10 mph    
Max Gust Speed -    
Visibility 10 miles    
Events      
Averages and records for this station are not official NWS values.
T = Trace of Precipitation, MM = Missing Value Source: NWS Daily Summary

Daily Weather History Graph

Daily Weather History Graph

Search for Another Location

Airport or City:

Astronomy

Sep. 29, 2019 Rise Set
Actual Time 7:30 AM EDT 7:22 PM EDT
Civil Twilight 7:04 AM EDT 7:49 PM EDT
Nautical Twilight 6:33 AM EDT 8:20 PM EDT
Astronomical Twilight 6:01 AM EDT 8:51 PM EDT
Moon 8:20 AM EDT (9/29) 8:23 PM EDT (9/29)
Length of Visible Light 12h 45m
Length of Day
11h 52m
New Moon, 1% of the Moon is Illuminated
Sep 29
New Moon
Oct 5
First Quarter
Oct 13
Full
Oct 21
Last Quarter
Oct 27
New

Hourly Weather History & Observations

Time (EDT) Temp. Heat Index Dew Point Humidity Pressure Visibility Wind Dir Wind Speed Gust Speed Precip Events Conditions
12:17 AM 71.6 °F - 64.9 °F 79% 30.19 in 10.0 mi NE 4.6 mph - N/A   Clear
12:36 AM 71.4 °F - 65.1 °F 80% 30.19 in 10.0 mi Calm Calm - N/A   Clear
12:55 AM 70.9 °F - 64.9 °F 81% 30.20 in 10.0 mi Calm Calm - N/A   Clear
1:15 AM 70.9 °F - 65.3 °F 82% 30.19 in 10.0 mi Calm Calm - N/A   Clear
1:39 AM 69.8 °F - 64.9 °F 84% 30.20 in 10.0 mi Calm Calm - N/A   Clear
1:57 AM 69.6 °F - 64.9 °F 85% 30.20 in 10.0 mi ENE 3.5 mph - N/A   Clear
2:15 AM 69.4 °F - 64.8 °F 85% 30.20 in 10.0 mi Calm Calm - N/A   Clear
2:35 AM 68.9 °F - 64.9 °F 87% 30.20 in 10.0 mi Calm Calm - N/A   Clear
2:55 AM 68.9 °F - 64.9 °F 87% 30.19 in 10.0 mi Calm Calm - N/A   Clear
3:19 AM 68.4 °F - 64.8 °F 88% 30.19 in 10.0 mi Calm Calm - N/A   Clear
3:37 AM 67.1 °F - 64.8 °F 92% 30.19 in 10.0 mi NNE 3.5 mph - N/A   Clear
3:55 AM 66.9 °F - 64.6 °F 92% 30.19 in 10.0 mi Calm Calm - N/A   Scattered Clouds
4:16 AM 66.4 °F - 64.6 °F 94% 30.19 in 10.0 mi Calm Calm - N/A   Scattered Clouds
4:35 AM 66.4 °F - 64.8 °F 95% 30.19 in 10.0 mi Calm Calm - N/A   Scattered Clouds
4:59 AM 66.7 °F - 64.8 °F 93% 30.19 in 10.0 mi Calm Calm - N/A   Clear
5:17 AM 65.8 °F - 64.4 °F 95% 30.20 in 10.0 mi Calm Calm - N/A   Clear
5:35 AM 65.3 °F - 64.4 °F 97% 30.19 in 10.0 mi Calm Calm - N/A   Clear
5:55 AM 65.8 °F - 64.6 °F 96% 30.20 in 10.0 mi Calm Calm - N/A   Clear
6:15 AM 65.8 °F - 64.8 °F 96% 30.20 in 10.0 mi Calm Calm - N/A   Clear
6:16 AM 65.8 °F - 64.8 °F 96% 30.20 in 10.0 mi Calm Calm - N/A   Clear
6:39 AM 65.3 °F - 64.6 °F 98% 30.21 in 10.0 mi Calm Calm - N/A   Clear
6:57 AM 65.3 °F - 64.6 °F 98% 30.21 in 10.0 mi Calm Calm - N/A   Clear
7:15 AM 64.6 °F - 63.7 °F 97% 30.21 in 10.0 mi Calm Calm - N/A   Clear
7:35 AM 65.5 °F - 64.8 °F 98% 30.21 in 10.0 mi Calm Calm - N/A   Clear
7:55 AM 66.0 °F - 64.9 °F 96% 30.22 in 10.0 mi Calm Calm - N/A   Clear
8:19 AM 67.3 °F - 65.7 °F 95% 30.23 in 10.0 mi Calm Calm - N/A   Mostly Cloudy
8:37 AM 67.6 °F - 65.8 °F 94% 30.23 in 10.0 mi Calm Calm - N/A   Mostly Cloudy
8:55 AM 68.9 °F - 66.2 °F 91% 30.24 in 10.0 mi ESE 4.6 mph - N/A   Scattered Clouds
9:15 AM 69.3 °F - 66.4 °F 91% 30.24 in 10.0 mi ESE 3.5 mph - N/A   Scattered Clouds
9:35 AM 70.2 °F - 66.6 °F 88% 30.24 in 10.0 mi ESE 4.6 mph - N/A   Scattered Clouds
9:58 AM 71.2 °F - 67.3 °F 87% 30.24 in 10.0 mi ESE 3.5 mph - N/A   Clear
10:17 AM 73.8 °F - 67.6 °F 81% 30.24 in 10.0 mi ESE 4.6 mph - N/A   Clear
10:35 AM 75.4 °F - 68.2 °F 78% 30.24 in 10.0 mi East 5.8 mph - N/A   Clear
10:55 AM 75.6 °F - 68.0 °F 77% 30.24 in 10.0 mi East 3.5 mph - N/A   Clear
11:15 AM 77.2 °F - 68.5 °F 75% 30.23 in 10.0 mi Calm Calm - N/A   Clear
11:38 AM 78.6 °F - 68.7 °F 72% 30.23 in 10.0 mi Calm Calm - N/A   Clear
11:57 AM 80.1 °F 83.0 °F 69.4 °F 70% 30.23 in 10.0 mi ESE 3.5 mph - N/A   Clear
12:15 PM 81.9 °F 85.6 °F 69.8 °F 67% 30.22 in 10.0 mi ESE 3.5 mph - N/A   Clear
12:35 PM 83.3 °F 86.6 °F 68.5 °F 61% 30.22 in 10.0 mi South 4.6 mph - N/A   Clear
12:55 PM 85.1 °F 88.5 °F 68.2 °F 57% 30.21 in 10.0 mi SSE 4.6 mph - N/A   Clear
1:18 PM 84.7 °F 86.8 °F 66.0 °F 53% 30.21 in 10.0 mi SW 6.9 mph - N/A   Mostly Cloudy
1:36 PM 86.0 °F 88.8 °F 67.1 °F 53% 30.21 in 10.0 mi WSW 6.9 mph - N/A   Scattered Clouds
1:55 PM 87.8 °F 91.1 °F 67.5 °F 51% 30.20 in 10.0 mi South 5.8 mph - N/A   Scattered Clouds
1:56 PM 88.0 °F 91.0 °F 67.3 °F 50% 30.20 in 10.0 mi SSE 3.5 mph - N/A   Scattered Clouds
2:15 PM 86.7 °F 89.9 °F 67.5 °F 53% 30.19 in 10.0 mi South 3.5 mph - N/A   Clear
2:35 PM 87.6 °F 90.8 °F 67.3 °F 51% 30.18 in 10.0 mi SSW 3.5 mph - N/A   Clear
2:58 PM 89.1 °F 92.1 °F 66.7 °F 48% 30.17 in 10.0 mi SSE 3.5 mph - N/A   Clear
3:16 PM 90.3 °F 93.0 °F 66.0 °F 45% 30.17 in 10.0 mi West 10.4 mph - N/A   Scattered Clouds
3:35 PM 89.1 °F 91.3 °F 65.8 °F 46% 30.16 in 10.0 mi SW 5.8 mph - N/A   Scattered Clouds
3:55 PM 90.0 °F 92.4 °F 66.2 °F 45% 30.14 in 10.0 mi South 6.9 mph - N/A   Scattered Clouds
4:15 PM 90.1 °F 92.3 °F 65.8 °F 44% 30.14 in 10.0 mi SSW 4.6 mph - N/A   Clear
4:38 PM 90.5 °F 92.5 °F 64.9 °F 43% 30.13 in 10.0 mi WSW 6.9 mph - N/A   Clear
4:56 PM 90.1 °F 92.0 °F 64.6 °F 43% 30.14 in 10.0 mi SW 5.8 mph - N/A   Scattered Clouds
5:15 PM 90.0 °F 91.3 °F 63.9 °F 42% 30.13 in 10.0 mi SW 9.2 mph - N/A   Scattered Clouds
5:35 PM 90.1 °F 92.0 °F 64.8 °F 43% 30.13 in 10.0 mi South 3.5 mph - N/A   Mostly Cloudy
5:55 PM 90.3 °F 92.2 °F 64.9 °F 43% 30.13 in 10.0 mi South 5.8 mph - N/A   Scattered Clouds
6:18 PM 89.6 °F 91.5 °F 64.8 °F 44% 30.14 in 10.0 mi Calm Calm - N/A   Clear
6:36 PM 86.4 °F 88.4 °F 65.5 °F 50% 30.14 in 10.0 mi NNE 4.6 mph - N/A   Scattered Clouds
6:55 PM 84.9 °F 87.4 °F 66.4 °F 54% 30.14 in 10.0 mi Calm Calm - N/A   Mostly Cloudy
7:15 PM 83.8 °F 86.3 °F 66.4 °F 56% 30.14 in 10.0 mi Calm Calm - N/A   Mostly Cloudy
7:35 PM 82.0 °F 84.3 °F 66.4 °F 59% 30.14 in 10.0 mi Calm Calm - N/A   Overcast
7:40 PM 81.5 °F 83.9 °F 66.9 °F 61% 30.14 in 10.0 mi Calm Calm - N/A   Overcast
7:58 PM 81.3 °F 83.8 °F 67.1 °F 62% 30.14 in 10.0 mi Calm Calm - N/A   Scattered Clouds
8:16 PM 80.6 °F 83.1 °F 67.3 °F 64% 30.15 in 10.0 mi Calm Calm - N/A   Scattered Clouds
8:35 PM 76.3 °F - 68.9 °F 78% 30.16 in 10.0 mi NNE 3.5 mph - N/A   Scattered Clouds
8:55 PM 76.8 °F - 69.1 °F 77% 30.17 in 10.0 mi Calm Calm - N/A   Clear
9:19 PM 76.5 °F - 68.5 °F 76% 30.18 in 10.0 mi ENE 4.6 mph - N/A   Clear
9:38 PM 75.9 °F - 68.2 °F 77% 30.18 in 10.0 mi ENE 3.5 mph - N/A   Clear
9:56 PM 75.0 °F - 68.2 °F 79% 30.18 in 10.0 mi ENE 4.6 mph - N/A   Clear
10:15 PM 74.3 °F - 68.0 °F 81% 30.19 in 10.0 mi Calm Calm - N/A   Clear
10:35 PM 73.8 °F - 68.0 °F 82% 30.18 in 10.0 mi East 3.5 mph - N/A   Clear
10:59 PM 73.4 °F - 67.6 °F 82% 30.18 in 10.0 mi ESE 3.5 mph - N/A   Clear
11:17 PM 73.4 °F - 67.8 °F 83% 30.18 in 10.0 mi ESE 3.5 mph - N/A   Clear
11:36 PM 73.0 °F - 67.6 °F 83% 30.17 in 10.0 mi ESE 3.5 mph - N/A   Clear
11:55 PM 72.1 °F - 67.6 °F 86% 30.17 in 10.0 mi Calm Calm - N/A   Clear